Theta_e
338 331 330 329 325 325 325 326 328 325 325 323 324 324 324 323 321 321 319 317 317 313
336 333 330 329 330 329 328 323 326 325 324 323 324 324 324 321 321 321 321 319 318 317
333 332 329 329 327 328 326 327 327 325 323 323 323 324 324 323 320 318 320 319 319 318
330 329 327 327 327 326 328 327 326 325 322 322 322 324 324 322 322 319 319 318 319 317
332 330 328 327 325 327 327 328 327 326 323 321 321 323 321 320 320 318 317 318 317 317
326 328 326 327 328 328 328 327 327 325 324 322 321 321 320 321 319 319 317 317 317 317
326 329 330 330 329 328 327 326 326 326 324 324 322 320 319 319 321 318 316 317 318 318
331 330 330 330 330 329 328 326 326 325 325 324 323 319 320 320 319 318 316 316 316 318
329 328 330 330 330 330 328 327 327 326 325 324 323 315 314 316 318 318 316 314 315 319
328 328 329 329 329 330 329 329 327 325 325 325 326 316 313 313 317 317 317 315 316 318
326 326 328 328 327 328 329 328 327 326 326 325 326 314 310 313 316 317 317 317 317 320
325 324 325 324 325 326 326 327 326 326 325 325 324 314 309 310 316 317 317 317 321 322
322 321 320 322 320 323 323 322 325 325 324 320 321 303 305 308 318 317 315 317 322 315
317 316 319 317 317 318 318 318 317 315 317 311 305 302 298 301 306 309 309 312 314 320
Wind_Speed
4 2 5 5 4 3 3 4 2 3 1 3 4 4 4 4 4 2 2 5 5 4
5 6 5 4 1 2 4 3 4 3 2 4 4 5 5 4 6 5 3 3 6 5
6 5 5 2 3 2 1 1 4 3 3 4 5 5 5 2 5 6 4 4 4 5
6 5 4 1 2 3 3 4 5 4 4 5 5 5 4 5 6 7 6 6 5 6
6 6 4 2 4 4 4 5 5 5 4 4 6 5 5 6 6 6 8 5 6 6
6 5 4 4 4 4 5 5 6 5 5 5 5 5 6 6 7 6 5 8 8 8
4 2 4 4 5 5 6 6 6 6 6 6 6 6 7 7 3 4 6 7 8 9
4 6 5 5 5 5 6 6 7 7 7 6 6 8 1 3 5 5 7 8 9 10
5 5 6 6 7 7 8 7 7 7 7 7 7 5 9 7 5 6 7 9 9 9
4 3 4 5 7 6 5 6 7 9 11 9 8 10 12 10 5 6 7 8 10 8
6 7 5 5 6 7 6 6 8 10 10 11 10 12 10 12 5 6 9 11 11 9
12 12 12 10 10 10 10 9 9 10 11 11 11 11 9 8 6 7 8 10 8 9
9 9 10 8 8 6 7 10 10 10 11 12 12 27 7 9 5 6 6 8 7 8
9 9 9 8 8 9 8 8 8 9 10 11 12 14 23 21 8 8 9 8 7 3
Wind_Direction
75 178 65 63 35 318 18 48 354 64 2 290 286 291 292 288 283 270 295 291 287 274
104 76 59 60 47 349 52 338 40 318 302 277 279 281 280 283 310 292 252 283 295 288
134 149 121 163 220 231 218 274 270 275 282 279 273 276 278 277 302 299 289 267 279 292
121 106 79 36 284 255 243 242 257 264 256 262 270 269 284 267 261 281 282 257 250 267
126 103 93 304 261 254 264 253 255 253 254 268 270 271 268 263 264 273 280 296 281 256
121 137 192 220 240 252 265 271 268 264 264 260 266 272 265 257 245 264 311 303 293 292
103 167 206 224 237 239 244 260 270 265 264 268 261 265 264 270 281 314 298 297 291 289
203 209 215 221 234 245 251 257 266 271 264 261 260 263 224 263 281 283 286 289 289 279
209 224 227 227 230 231 235 243 256 260 263 264 270 225 204 219 253 272 280 284 288 286
258 268 295 306 299 289 304 287 259 275 271 270 269 248 222 216 235 260 276 278 274 279
328 333 305 282 297 313 306 295 288 282 277 278 273 273 224 205 223 255 263 261 260 259
23 8 2 11 359 342 332 314 299 291 287 281 278 280 242 189 222 255 266 273 262 250
351 350 335 352 352 334 351 347 341 330 318 314 353 16 281 218 239 263 277 282 244 264
348 340 327 348 346 334 336 341 342 352 14 42 35 37 25 19 338 352 329 310 313 292